Web Car-Videos.com

 

Car-videos.com

Videos
Performance Statistics
Unit Converter
Horsepower & Torque
Speed/RPM Calculator
Tires
FAQ
Contact Us
Updates and News Feed
Advertise with Us!  new!
Link to Us


Add to My AOL

Subscribe in NewsGator Online








Performance Home  |  List of all Cars  |  Custom Statistics  |  Tracks

Alabama International Motor Speedway (Talladega)
Talladega, Alabama
2.66 Miles

The first lap time is from a dead stop and the 2nd is taken when the car passes the starting line at the end of the 1st lap.

Car First Lap Second Lap
1.1998 Mercedes-Benz CLK-GTR (6M)1:11.31:05.4
2.2003 Dodge Viper SRT-10 (6M)1:14.61:08.3
3.1966 AC Cobra 427 (4M)1:16.91:10.2
4.2000 Maserati 3200 GT (6M)1:19.61:10.9
5.2000 BMW Z8 (6M)1:20.01:11.3
6.1993 Mazda RX-7 Twin Turbo (5M)1:20.11:10.7
7.1970 Ford Mustang Boss 429 (4M)1:21.01:12.7
8.1994 Toyota Supra Turbo (6M)1:21.01:12.0
9.2002 Mercedes-Benz C 32 AMG (5A)1:22.01:12.3
10.2002 Subaru Impreza WRX Sedan AccessECU2 17" (5M)1:22.71:12.7
11.1994 Dodge Stealth R/T Turbo (6M)1:22.71:12.8
12.2004 Subaru Impreza WRX STi (USA) (6M)1:23.01:13.9
13.1996 Nissan Skyline GT-R (R33) (5M)1:23.21:13.0
14.1994 Mitsubishi 3000GT VR-4 (6M)1:23.21:14.4
15.1987 Buick Regal Grand National GNX (4A)1:24.11:13.5
16.2003 BMW 330 Ci Coupe (5M)1:24.51:14.1
17.2003 Dodge Neon SRT-4 (5M)1:24.61:15.1
18.1985 Chevrolet Corvette (4M)1:24.91:15.0
19.2002 Acura RSX Type-R (Jap) (6M)1:25.31:15.2
20.1995 Ford Escort RS Cosworth (UK) (5M)1:25.41:15.2
21.2003 Acura 3.2CL Type-S (6M)1:25.51:15.5
22.1973 Porsche 911 Carrera RS (5M)1:25.71:16.3
23.2002 Opel Speedster (5M)1:25.71:15.1
24.1998 Ford Mustang GT (5M)1:26.31:14.2
25.1998 Volvo C70 Coupe (5M)1:26.41:14.9
26.2002 Subaru Impreza WRX Sedan (5M)1:26.61:16.4
27.1995 Volvo 850 T-5R (4A)1:26.71:16.3
28.2003 Volkswagen GTI VR6 (6M)1:26.71:15.5
29.2000 Saab 9-3 Viggen 3-Door (5M)1:26.81:16.6
30.2003 Infiniti M45 (5A)1:26.91:16.8
31.1994 Chevrolet Impala SS (4A)1:27.01:15.1
32.2002 Volkswagen GTI 1.8T (5M)1:27.01:15.9
33.1995 Ford Mustang Cobra (5M)1:27.11:16.6
34.2001 BMW 330 i (5M)1:27.21:16.7
35.1989 Toyota Supra Turbo (5M)1:27.31:15.8
36.2003 Mercury Marauder (4A)1:27.41:15.8
37.1999 BMW 328 i (5M)1:27.41:15.2
38.1991 Dodge Stealth ES (5M)1:27.51:15.9
39.2001 Lexus IS 300 (5A)1:27.71:15.6
40.2002 Acura RSX Type-S (6M)1:27.81:17.0
41.1997 Pontiac Grand Prix GTP Sedan (4A)1:27.81:16.8
42.2002 Lexus IS 300 (5M)1:28.11:16.8
43.1997 Volvo 850 T5 (4A)1:28.11:16.9
44.2002 Jaguar X-Type 3.0 (5M)1:28.51:17.7
45.2001 BMW 330 Ci Convertible (5M)1:28.81:17.0
46.1970 Oldsmobile 4-4-2 W-30 (4M)1:29.01:21.5
47.2004 Subaru Forester 2.5XT Turbo (5M)1:29.11:20.0
48.2001 BMW 325 i (5M)1:29.11:18.0
49.2002 Nissan Sentra SE-R Spec V (6M)1:29.11:17.5
50.1992 Chevrolet Camaro Z28 (4A)1:29.51:16.4
51.1996 Chevrolet Camaro V6 (3.8) (4A)1:29.71:16.7
52.2002 Audi A4 3.0 CVT (CVT)1:30.11:19.1
53.1995 Nissan 240SX SE (5M)1:30.61:17.7
54.2001 Audi A6 4.2 Quattro (5A)1:30.61:20.3
55.1989 Toyota MR2 Supercharged (5M)1:30.71:19.1
56.1969 Chevrolet Chevelle SS 396 (3A)1:31.01:23.0
57.1999 Chrysler 300M (4A)1:31.11:19.8
58.2003 Honda Civic SI (5M)1:31.41:19.6
59.2000 Honda Civic SI (5M)1:31.61:19.7
60.1984 Toyota Supra (5M)1:31.61:18.9
61.2003 Volkswagen Passat GL 1.8T (5A)1:31.81:21.3
62.1991 Toyota MR2 (5M)1:32.21:20.5
63.1990 Chevrolet Beretta GT (5M)1:32.61:20.4
64.1995 BMW 318 ti (5M)1:33.01:19.8
65.2000 Ford Mustang Coupe (4A)1:33.01:20.4
66.2004 Harley-Davidson Sportster 1200 Roadster (5M)1:33.21:25.2
67.2003 Lincoln Aviator (5A)1:34.41:22.5
68.1996 Honda Civic EX Coupe (5M)1:34.51:21.7
69.2003 Hyundai Sonata GLS (4A)1:34.51:23.0
70.2003 Saturn L 200 (5M)1:34.81:22.0
71.1995 Chevrolet Camaro V6 (3.4) (5M)1:35.11:22.1
72.1989 Mazda 323 GTX (5M)1:35.61:21.5
73.1997 Ford Probe (5M)1:35.91:21.2
74.1994 GMC Sonoma SLS (4A)1:36.41:22.7
75.2000 Chevrolet Impala Police Package (4A)1:37.01:22.4
76.1986 Ford Mustang LX V6 (3A)1:37.21:24.0
77.2001 Chrysler PT Cruiser (5M)1:37.71:25.2
78.2002 Jeep Liberty Limited 4x4 (4A)1:37.81:24.2
79.1995 Chevrolet Blazer LS 4X4 (4A)1:37.91:24.2
80.2002 Saturn Vue V6 AWD (5A)1:38.31:24.3
81.1997 Volkswagen GTI 2.0 (5M)1:38.71:22.1
82.1996 Geo Prizm 1.6 (5M)1:38.81:23.0
83.2002 Chevrolet Avalanche Z71 (4A)1:38.91:25.6
84.2001 Pontiac Sunfire SE Sedan (5M)1:39.91:26.9
85.1986 Honda Civic CRX HF (5M)1:48.61:34.3
86.1987 Yugo GV (4M)2:01.11:45.2